Old Crow,

2:45 PM PST on January 21, 2018 (GMT -0800)
Old Crow

Weather History for CZOC - January, 2014

Change the Weather History Date:

Sunday, January 12, 2014

  Actual Average Record
Temperature  
Mean Temperature -44 °F -  
Max Temperature -37 °F - - ()
Min Temperature -50 °F - - ()
Degree Days  
Heating Degree Days 108    
Moisture  
Dew Point -53 °F    
Average Humidity 58    
Maximum Humidity 65    
Minimum Humidity 35    
Precipitation  
Precipitation 0.00 in - - ()
Sea Level Pressure  
Sea Level Pressure 29.55 in    
Wind  
Wind Speed 1 mph ()    
Max Wind Speed 2 mph    
Max Gust Speed -    
T = Trace of Precipitation, MM = Missing Value Source: Averaged Metar Reports

Daily Weather History Graph

Daily Weather History Graph

Search for Another Location

Airport or City:

Trip Planner

Search our weather history database for the weather conditions in past years. The results will help you decide how hot, cold, wet, or windy it might be!

Date:

Astronomy

Jan. 12, 2014 Rise Set
Actual Time 11:53 AM PST 3:03 PM PST
Civil Twilight 10:13 AM PST 4:42 PM PST
Nautical Twilight 8:55 AM PST 6:01 PM PST
Astronomical Twilight 7:47 AM PST 7:08 PM PST
Moon 1:00 PM PST (1/12) 8:34 AM PST (1/12)
Length of Visible Light 6h 28m
Length of Day
3h 10m
Waxing Gibbous, 90% of the Moon is Illuminated
Jan 12
Waxing Gibbous
Jan 15
Full
Jan 23
Last Quarter
Jan 30
New
Feb 6
First Quarter

Hourly Weather History & Observations

Time (PST) Temp. Dew Point Humidity Pressure Visibility Wind Dir Wind Speed Gust Speed Precip Events Conditions
12:00 AM -49.0 °F -58.4 °F 58% 29.55 in - Calm Calm - N/A   Unknown
1:00 AM -48.8 °F -58.2 °F 58% 29.55 in - Calm Calm - N/A   Unknown
2:00 AM -47.6 °F -56.7 °F 59% 29.54 in - East 2.3 mph - N/A   Unknown
3:00 AM -47.0 °F -56.2 °F 59% 29.54 in - WNW 1.2 mph - N/A   Unknown
4:00 AM -46 °F -55 °F 40% 29.52 in - Calm Calm - -  
4:00 AM -45.8 °F -54.6 °F 60% 29.52 in - South 1.2 mph - N/A   Unknown
5:00 AM -45.2 °F -54.0 °F 60% 29.52 in - SW 2.3 mph - N/A   Unknown
6:00 AM -44.3 °F -53.1 °F 60% 29.51 in - Calm Calm - N/A   Unknown
7:00 AM -42.9 °F -51.5 °F 61% 29.51 in - Calm Calm - N/A   Unknown
8:00 AM -41.1 °F -49.5 °F 62% 29.50 in - Calm Calm - N/A   Unknown
9:00 AM -40.2 °F -48.6 °F 62% 29.50 in - WSW 1.2 mph - N/A   Unknown
10:00 AM -39 °F -47 °F 44% 29.50 in - SW 1.2 mph - -  
10:00 AM -38.7 °F -47.0 °F 63% 29.50 in - SW 1.2 mph - N/A   Unknown
11:00 AM -37.3 °F -45.2 °F 65% 29.50 in - West 2.3 mph - N/A   Unknown
12:00 PM -37.1 °F -45.0 °F 65% 29.51 in - West 2.3 mph - N/A   Unknown
1:00 PM -38.7 °F -47.0 °F 63% 29.52 in - Calm Calm - N/A   Unknown
2:00 PM -40.9 °F -49.4 °F 62% 29.52 in - NW 1.2 mph - N/A   Unknown
3:00 PM -42.9 °F -51.7 °F 61% 29.54 in - West 2.3 mph - N/A   Unknown
4:00 PM -43 °F -52 °F 41% 29.54 in - Calm Calm - -  
4:00 PM -43.1 °F -51.5 °F 62% 29.54 in - Calm Calm - N/A   Unknown
5:00 PM -45.9 °F -54.9 °F 60% 29.56 in - NE 2.3 mph - N/A   Unknown
6:00 PM -46.8 °F -56.0 °F 59% 29.56 in - Calm Calm - N/A   Unknown
7:00 PM -47.0 °F -56.0 °F 59% 29.57 in - Calm Calm - N/A   Unknown
8:00 PM -48.6 °F -57.8 °F 59% 29.60 in - NE 1.2 mph - N/A   Unknown
9:00 PM -49.4 °F -58.7 °F 58% 29.62 in - Calm Calm - N/A   Unknown
10:00 PM -50 °F -59 °F 35% 29.64 in - Calm Calm - -  
10:00 PM -50.1 °F -59.4 °F 58% 29.64 in - North 1.2 mph - N/A   Unknown
11:00 PM -50.1 °F -59.3 °F 58% 29.66 in - Calm Calm - N/A   Unknown